Tracking 18795 objects as of 21-August-2017
HD Live streaming from Space Station
objects crossing your sky now

USA 81

Track USA 81 now!
10-day predictions
USA 81 is classified as:


NORAD ID: 21949
Int'l Code: 1992-023A
Perigee: 793.2 km
Apogee: 795.3 km
Inclination: 85.0 °
Period: 100.6 minutes
Semi major axis: 7165 km
RCS: Unknown
Launch date: April 25, 1992
Source: United States (US)
Launch site: AIR FORCE WESTERN TEST RANGE (AFWTR)
Your satellite tracking list
Your tracking list is empty





NASA's NSSDC Master Catalog

Two Line Element Set (TLE):
1 21949U 92023A   17227.89458736 0.00000030  00000-0  11334-4 0    02
2 21949  85.0097 134.1321 0001500  33.5367 326.4632 14.31387708    02
Source of the keplerian elements: McCants